Printer-friendly version
Follow the MPC on Twitter Follow the MPC on Facebook The MPC blog
Minor Planet Center

MPEC 2006-W105: 2006 WE129

The following Minor Planet Electronic Circular may be linked-to from your own Web pages, but must not otherwise be redistributed electronically.

A form allowing access to any MPEC is at the bottom of this page.


Read MPEC 2006-W104 Read MPEC 2006-W106


M.P.E.C. 2006-W105                               Issued 2006 Nov. 28, 12:52 UT

     The Minor Planet Electronic Circulars contain information on unusual
         minor planets and routine data on comets.  They are published
   on behalf of Commission 20 of the International Astronomical Union by the
          Minor Planet Center, Smithsonian Astrophysical Observatory,
                          Cambridge, MA 02138, U.S.A.

             Prepared using the Tamkin Foundation Computer Network

                              MPC@CFA.HARVARD.EDU
          URL http://cfa-www.harvard.edu/iau/mpc.html  ISSN 1523-6714

                                  2006 WE129

Observations:
     K06WC9E* C2006 11 27.12899 03 45 37.09 +14 16 14.9          20.1 V EW105691
     K06WC9E  C2006 11 27.13890 03 45 34.91 +14 16 32.4          20.5 V EW105691
     K06WC9E  C2006 11 27.14882 03 45 32.79 +14 16 48.6          20.5 V EW105691
     K06WC9E  C2006 11 27.22655 03 45 15.93 +14 19 01.4          20.5 V EW105291
     K06WC9E  C2006 11 27.23040 03 45 15.08 +14 19 08.0          20.7 V EW105291
     K06WC9E  C2006 11 27.23421 03 45 14.24 +14 19 14.3          20.5 V EW105291
     K06WC9E  C2006 11 27.89478 03 42 52.20 +14 37 57.2          20.7 R EW105113
     K06WC9E  C2006 11 27.89667 03 42 51.81 +14 38 01.0          20.3 R EW105113
     K06WC9E  C2006 11 27.89855 03 42 51.37 +14 38 04.1          20.5 R EW105113
     K06WC9E  C2006 11 27.90043 03 42 50.97 +14 38 07.0          19.9 R EW105113
     K06WC9E  C2006 11 27.90230 03 42 50.56 +14 38 10.2          20.2 R EW105113
     K06WC9E  C2006 11 28.37093 03 41 08.32 +14 51 40.1          20.6 R EW105651
     K06WC9E  C2006 11 28.37243 03 41 07.98 +14 51 42.1          20.6 R EW105651
     K06WC9E  C2006 11 28.37393 03 41 07.60 +14 51 42.7          20.6 R EW105651
     K06WC9E  C2006 11 28.37542 03 41 07.16 +14 51 45.8          20.6 R EW105651

Observer details:
113 Volkssternwarte Drebach, Schoenbrunn.  Observers G. Lehmann, J. Kandler.
    0.5-m f/5 reflector + CCD.
291 LPL/Spacewatch II.  Observer T. H. Bressi.  1.8-m f/2.7 reflector + CCD.
651 Grasslands Observatory, Tucson.  Observer J. E. McGaha.  0.62-m f/5.1
    Newtonian reflector + CCD.
691 Steward Observatory, Kitt Peak.  Observer T. H. Bressi.  0.9-m f/3
    reflector + CCD.

Orbital elements:
2006 WE129                                               Earth MOID = 0.2093 AU
Epoch 2006 Sept. 22.0 TT = JDT 2454000.5                MPC
M 298.86567              (2000.0)            P               Q
n   0.32015496     Peri.  103.44190     -0.71137831     -0.28352732
a   2.1162285      Node    63.82420     -0.19406140     -0.80019862
e   0.5661256      Incl.   45.77192     +0.67548580     -0.52848313
P   3.08           H   19.8           G   0.15           U   9
Residuals in seconds of arc
061127 691  0.3+  0.2-    061127 291  0.2-  0.1-    061127 113  0.1+  0.0
061127 691  0.3-  0.4+    061127 113  0.0   0.1-    061128 651  0.7+  1.2+
061127 691  0.0   0.3-    061127 113  0.3+  0.5+    061128 651  0.6+  0.6+
061127 291  0.1+  0.0     061127 113  0.1-  0.3+    061128 651  0.0   1.4-
061127 291  0.0   0.1+    061127 113  0.1+  0.0     061128 651  1.6-  0.8-

Ephemeris:
2006 WE129               a,e,i = 2.12, 0.57, 46                  q = 0.9182
Date    TT    R. A. (2000) Decl.     Delta      r     Elong.  Phase     V
2006 11 21    04 05.97   +11 32.8    0.783    1.765   170.3     5.4    20.9
2006 12 01    03 31.39   +16 08.5    0.714    1.687   165.7     8.3    20.8
2006 12 11    02 51.88   +21 10.3    0.687    1.608   147.8    19.0    21.0
2006 12 21    02 13.15   +25 55.6    0.697    1.528   129.9    29.6    21.2
2006 12 31    01 40.34   +30 03.7    0.735    1.447   113.9    38.4    21.5
2007 01 10    01 15.41   +33 41.2    0.786    1.365   100.5    45.1    21.7
2007 01 20    00 57.80   +37 04.1    0.839    1.285    89.3    50.0    21.8
2007 01 30    00 45.86   +40 26.4    0.885    1.207    80.2    53.5    21.9
2007 02 09    00 37.70   +43 56.0    0.918    1.133    72.9    56.3    21.9
2007 02 19    00 31.66   +47 36.7    0.934    1.065    67.2    58.8    21.9
2007 03 01    00 26.18   +51 29.8    0.929    1.006    63.1    61.4    21.8
2007 03 11    00 19.70   +55 34.1    0.901    0.960    60.7    64.4    21.8
2007 03 21    00 10.62   +59 48.5    0.850    0.930    59.9    67.9    21.7
2007 03 31    23 56.71   +64 14.9    0.776    0.918    60.8    71.7    21.6
2007 04 10    23 33.68   +69 01.2    0.683    0.926    63.4    75.3    21.4
2007 04 20    22 47.88   +74 25.3    0.575    0.953    68.1    77.9    21.2
2007 04 30    20 31.94   +79 49.7    0.459    0.997    75.5    78.0    20.8
2007 05 10    15 53.79   +74 51.1    0.349    1.053    87.4    73.3    20.2
2007 05 20    14 08.42   +50 47.2    0.273    1.119   106.2    60.2    19.4
2007 05 30    13 36.48   +16 29.5    0.281    1.193   123.7    45.0    19.1
2007 06 09    13 25.91   -08 51.5    0.375    1.270   125.4    40.6    19.8
2007 06 19    13 25.01   -22 51.1    0.515    1.350   120.1    40.6    20.6
2007 06 29    13 29.89   -30 53.7    0.675    1.431   114.1    40.4    21.3
2007 07 09    13 38.72   -36 02.6    0.844    1.512   108.4    39.7    21.9
2007 07 19    13 50.58   -39 40.6    1.018    1.593   103.0    38.4    22.4

Timothy B. Spahr             (C) Copyright 2006 MPC           M.P.E.C. 2006-W105

Read MPEC 2006-W104 Read MPEC 2006-W106


MPEC number:

Enter an MPEC number in one of the following forms:

  • 1997-B01 (the full form)
  • J97B01 (the packed version of the full form)
  • B01 (the abbreviated form)

Valid HTML 4.01!